Location: *
(45.5224°N, 122.7471°W)
Time: 03:38:20
(UTC+00:00)

STARLINK-1043 - Pass Details

Date: 09 April 2020
Orbit: 549 x 551 km, 53.0° (Epoch: 25 May)

Event Time Altitude Azimuth Distance (km) Brightness Sun altitude
Exits shadow 12:11:38 26° 253° (WSW) 1,114 4.6 -14.6°
Maximum altitude 12:13:53 69° 331° (NNW) 590 3.7 -14.2°
Drops below altitude 10° 12:18:02 10° 56° (NE) 1,826 7.7 -13.6°
Sets 12:20:17 0° 58° (ENE) 2,722 9.2 -13.2°
